| time (UTC) | temp F | wind direction | speed MPH | gust MPH | rain 1hr in | rain 24hr in | rain mn in | humidity % | barometer mb |
| 20260504231004 | 68 | 135 | 3.0 | 7.0 | 0.00 | 0.00 | 0.00 | 61 | 1010.6 |
| 20260504223504 | 70 | 169 | 2.0 | 12.0 | 0.00 | 0.00 | 0.00 | 56 | 1010.7 |
| 20260504223004 | 70 | 136 | 3.0 | 10.0 | 0.00 | 0.00 | 0.00 | 54 | 1010.6 |
| 20260504222504 | 71 | 150 | 3.0 | 12.0 | 0.00 | 0.00 | 0.00 | 53 | 1010.6 |
| 20260504222004 | 71 | 187 | 3.0 | 12.0 | 0.00 | 0.00 | 0.00 | 52 | 1010.6 |
| 20260504221504 | 72 | 152 | 5.0 | 9.0 | 0.00 | 0.00 | 0.00 | 51 | 1010.6 |
| 20260504220504 | 75 | 157 | 5.0 | 12.0 | 0.00 | 0.00 | 0.00 | 45 | 1010.5 |
| 20260504215004 | 75 | 119 | 2.0 | 10.0 | 0.00 | 0.00 | 0.00 | 36 | 1010.6 |
| 20260504213505 | 76 | 3 | 3.0 | 8.0 | 0.00 | 0.00 | 0.00 | 36 | 1010.6 |
| 20260504213005 | 76 | 223 | 4.0 | 10.0 | 0.00 | 0.00 | 0.00 | 34 | 1010.6 |
| 20260504212004 | 76 | 231 | 4.0 | 10.0 | 0.00 | 0.00 | 0.00 | 33 | 1010.6 |
| 20260504210504 | 76 | 255 | 2.0 | 9.0 | 0.00 | 0.00 | 0.00 | 33 | 1010.5 |
| 20260504205504 | 76 | 59 | 2.0 | 10.0 | 0.00 | 0.00 | 0.00 | 33 | 1010.6 |
| 20260504203504 | 76 | 310 | 3.0 | 12.0 | 0.00 | 0.00 | 0.00 | 35 | 1010.7 |
| 20260504202504 | 76 | 188 | 3.0 | 12.0 | 0.00 | 0.00 | 0.00 | 35 | 1010.6 |
| 20260504201504 | 77 | 254 | 4.0 | 12.0 | 0.00 | 0.00 | 0.00 | 35 | 1010.7 |
| 20260504201004 | 77 | 236 | 2.0 | 8.0 | 0.00 | 0.00 | 0.00 | 35 | 1010.8 |
| 20260504200504 | 77 | 215 | 3.0 | 8.0 | 0.00 | 0.00 | 0.00 | 34 | 1010.7 |
| 20260504200005 | 76 | 293 | 2.0 | 5.0 | 0.00 | 0.00 | 0.00 | 34 | 1010.8 |
| 20260504195504 | 76 | 275 | 2.0 | 8.0 | 0.00 | 0.00 | 0.00 | 33 | 1010.9 |
| 20260504195005 | 76 | 212 | 3.0 | 10.0 | 0.00 | 0.00 | 0.00 | 34 | 1010.9 |
| 20260504194505 | 76 | 249 | 3.0 | 7.0 | 0.00 | 0.00 | 0.00 | 33 | 1011.0 |
| 20260504194004 | 76 | 249 | 3.0 | 9.0 | 0.00 | 0.00 | 0.00 | 33 | 1011.0 |
| 20260504193504 | 76 | 260 | 3.0 | 8.0 | 0.00 | 0.00 | 0.00 | 33 | 1011.1 |
| 20260504192505 | 77 | 166 | 3.0 | 9.0 | 0.00 | 0.00 | 0.00 | 34 | 1011.1 |
| 20260504192004 | 76 | 236 | 3.0 | 9.0 | 0.00 | 0.00 | 0.00 | 33 | 1011.2 |
| 20260504191005 | 76 | 14 | 3.0 | 6.0 | 0.00 | 0.00 | 0.00 | 34 | 1011.3 |
| 20260504190504 | 76 | 100 | 3.0 | 9.0 | 0.00 | 0.00 | 0.00 | 33 | 1011.4 |
| 20260504185505 | 76 | 221 | 2.0 | 7.0 | 0.00 | 0.00 | 0.00 | 36 | 1011.5 |
| 20260504184504 | 76 | 188 | 5.0 | 12.0 | 0.00 | 0.00 | 0.00 | 32 | 1011.6 |
| 20260504184004 | 76 | 225 | 3.0 | 10.0 | 0.00 | 0.00 | 0.00 | 34 | 1011.6 |
| 20260504183504 | 76 | 264 | 3.0 | 7.0 | 0.00 | 0.00 | 0.00 | 36 | 1011.6 |
| 20260504182505 | 75 | 297 | 5.0 | 10.0 | 0.00 | 0.00 | 0.00 | 34 | 1011.8 |
| 20260504181504 | 75 | 260 | 2.0 | 7.0 | 0.00 | 0.00 | 0.00 | 35 | 1011.9 |
| 20260504181005 | 75 | 308 | 4.0 | 9.0 | 0.00 | 0.00 | 0.00 | 35 | 1011.9 |
| 20260504180505 | 75 | 241 | 4.0 | 8.0 | 0.00 | 0.00 | 0.00 | 33 | 1012.0 |
| 20260504180004 | 75 | 273 | 4.0 | 15.0 | 0.00 | 0.00 | 0.00 | 34 | 1012.0 |
| 20260504175504 | 75 | 271 | 3.0 | 8.0 | 0.00 | 0.00 | 0.00 | 33 | 1012.1 |
| 20260504175004 | 75 | 218 | 4.0 | 10.0 | 0.00 | 0.00 | 0.00 | 33 | 1012.2 |
| 20260504173005 | 75 | 282 | 3.0 | 9.0 | 0.00 | 0.00 | 0.00 | 34 | 1012.4 |
| 20260504172004 | 74 | 292 | 4.0 | 8.0 | 0.00 | 0.00 | 0.00 | 34 | 1012.5 |
| 20260504171504 | 75 | 355 | 3.0 | 9.0 | 0.00 | 0.00 | 0.00 | 34 | 1012.6 |
| 20260504170504 | 74 | 215 | 3.0 | 8.0 | 0.00 | 0.00 | 0.00 | 38 | 1012.7 |
| 20260504140505 | 66 | 181 | 2.0 | 5.0 | 0.00 | 0.00 | 0.00 | 55 | 1014.1 |
| 20260504130504 | 63 | 148 | 2.0 | 5.0 | 0.00 | 0.00 | 0.00 | 60 | 1014.9 |
| 20260504110505 | 53 | 136 | 1.0 | 3.0 | 0.00 | 0.00 | 0.00 | 79 | 1015.6 |
| 20260504081004 | 52 | 174 | 2.0 | 3.0 | 0.00 | 0.00 | 0.00 | 77 | 1015.9 |
| 20260504080504 | 52 | 172 | 2.0 | 5.0 | 0.00 | 0.00 | 0.00 | 77 | 1015.8 |
| 20260504050505 | 50 | 175 | 2.0 | 3.0 | 0.00 | 0.00 | 0.00 | 62 | 1015.8 |
| 20260504045004 | 49 | 147 | 1.0 | 3.0 | 0.00 | 0.00 | 0.00 | 64 | 1015.7 |
| 20260504044504 | 49 | 109 | 1.0 | 2.0 | 0.00 | 0.00 | 0.00 | 64 | 1015.7 |
| 20260504044005 | 49 | 109 | 1.0 | 2.0 | 0.00 | 0.00 | 0.00 | 64 | 1015.7 |
| 20260504043004 | 48 | 144 | 0.0 | 2.0 | 0.00 | 0.00 | 0.00 | 65 | 1015.7 |
| 20260504042504 | 48 | 132 | 0.0 | 2.0 | 0.00 | 0.00 | 0.00 | 66 | 1015.6 |
| 20260504042004 | 48 | 138 | 0.0 | 2.0 | 0.00 | 0.00 | 0.00 | 66 | 1015.6 |
| 20260504041504 | 48 | 138 | 0.0 | 2.0 | 0.00 | 0.00 | 0.00 | 66 | 1015.5 |
| 20260504041005 | 48 | 138 | 0.0 | 2.0 | 0.00 | 0.00 | 0.00 | 66 | 1015.5 |
| 20260504040004 | 47 | 138 | 0.0 | 2.0 | 0.00 | 0.00 | 0.00 | 68 | 1015.3 |
| 20260504035505 | 47 | 151 | 0.0 | 1.0 | 0.00 | 0.00 | 0.00 | 68 | 1015.3 |
| 20260504035005 | 47 | 155 | 0.0 | 1.0 | 0.00 | 0.00 | 0.00 | 67 | 1015.3 |
| 20260504034504 | 47 | 155 | 1.0 | 2.0 | 0.00 | 0.00 | 0.00 | 68 | 1015.2 |
| 20260504033004 | 47 | 194 | 0.0 | 1.0 | 0.00 | 0.00 | 0.00 | 68 | 1015.1 |
| 20260504032505 | 47 | 194 | 0.0 | 1.0 | 0.00 | 0.00 | 0.00 | 68 | 1015.2 |
| 20260504031004 | 47 | 275 | 0.0 | 1.0 | 0.00 | 0.00 | 0.00 | 67 | 1015.1 |
| 20260504030005 | 47 | 275 | 0.0 | 1.0 | 0.00 | 0.00 | 0.00 | 67 | 1015.1 |
| 20260504025505 | 48 | 275 | 0.0 | 1.0 | 0.00 | 0.00 | 0.00 | 66 | 1015.1 |
| 20260504025005 | 48 | 275 | 0.0 | 1.0 | 0.00 | 0.00 | 0.00 | 67 | 1015.1 |
| 20260504024504 | 47 | 275 | 0.0 | 2.0 | 0.00 | 0.00 | 0.00 | 67 | 1015.1 |
| 20260504024004 | 48 | 275 | 0.0 | 1.0 | 0.00 | 0.00 | 0.00 | 67 | 1015.1 |
| 20260504023504 | 47 | 275 | 1.0 | 2.0 | 0.00 | 0.00 | 0.00 | 68 | 1015.1 |
| 20260504020504 | 47 | 275 | 0.0 | 0.0 | 0.00 | 0.00 | 0.00 | 68 | 1015.1 |
| 20260504020005 | 47 | 275 | 0.0 | 0.0 | 0.00 | 0.00 | 0.00 | 68 | 1014.9 |
| 20260504015505 | 47 | 275 | 0.0 | 0.0 | 0.00 | 0.00 | 0.00 | 70 | 1014.9 |
| 20260504015005 | 47 | 275 | 0.0 | 0.0 | 0.00 | 0.00 | 0.00 | 67 | 1014.9 |
| 20260504014504 | 47 | 275 | 0.0 | 0.0 | 0.00 | 0.00 | 0.00 | 67 | 1014.9 |
| 20260504005504 | 50 | 275 | 0.0 | 1.0 | 0.00 | 0.00 | 0.00 | 62 | 1014.5 |
| 20260504001504 | 54 | 275 | 0.0 | 1.0 | 0.00 | 0.00 | 0.00 | 50 | 1013.9 |
| 20260503234504 | 57 | 275 | 1.0 | 2.0 | 0.00 | 0.00 | 0.00 | 42 | 1013.7 |
| 20260503233504 | 58 | 275 | 1.0 | 3.0 | 0.00 | 0.00 | 0.00 | 40 | 1013.7 |
| 20260503233005 | 58 | 286 | 2.0 | 3.0 | 0.00 | 0.00 | 0.00 | 40 | 1013.7 |
| 20260503232004 | 58 | 298 | 2.0 | 3.0 | 0.00 | 0.00 | 0.00 | 40 | 1013.7 |